This is the latest recevied weather packets stored in our database for station/object KB1RMA-13. If no packets are shown the sender has not sent any weather packets the latest 10 day(s).
| Time | Temp. | Humidity | Pressure | Rain* | Wind** | Luminosity | Snow |
|---|---|---|---|---|---|---|---|
| 1777424636 | 6.67° C | 82% | 1021 hPa | 0 mm | - | 0 W/m² | - |
| 1777424336 | 6.67° C | 83% | 1020.9 hPa | 0 mm | - | 0 W/m² | - |
| 1777424032 | 6.67° C | 83% | 1020.9 hPa | 0 mm | - | 0 W/m² | - |
| 1777423729 | 6.67° C | 84% | 1020.7 hPa | 0 mm | - | 0 W/m² | - |
| 1777423425 | 6.67° C | 84% | 1021 hPa | 0 mm | - | 0 W/m² | - |
| 1777423125 | 6.67° C | 85% | 1020.8 hPa | 0 mm | - | 0 W/m² | - |
| 1777422820 | 6.67° C | 85% | 1020.9 hPa | 0 mm | - | 0 W/m² | - |
| 1777422516 | 6.67° C | 85% | 1021 hPa | 0 mm | - | 0 W/m² | - |
| 1777422212 | 6.67° C | 84% | 1020.9 hPa | 0 mm | - | 0 W/m² | - |
| 1777421911 | 6.67° C | 84% | 1020.9 hPa | 0 mm | - | 0 W/m² | - |
| 1777421607 | 6.67° C | 84% | 1020.7 hPa | 0 mm | - | 0 W/m² | - |
| 1777421302 | 6.67° C | 84% | 1020.7 hPa | 0 mm | - | 0 W/m² | - |
| 1777420999 | 6.67° C | 84% | 1020.9 hPa | 0 mm | - | 0 W/m² | - |
| 1777420695 | 6.67° C | 84% | 1020.8 hPa | 0 mm | - | 0 W/m² | - |
| 1777420392 | 6.67° C | 83% | 1020.8 hPa | 0 mm | - | 0 W/m² | - |
| 1777420088 | 6.67° C | 83% | 1021.2 hPa | 0 mm | - | 1 W/m² | - |
| 1777419784 | 6.67° C | 82% | 1020.8 hPa | 0 mm | - | 2 W/m² | - |
| 1777419482 | 6.67° C | 82% | 1021 hPa | 0 mm | - | 4 W/m² | - |
| 1777419180 | 6.67° C | 81% | 1020.9 hPa | 0 mm | - | 6 W/m² | - |
| 1777418876 | 6.67° C | 81% | 1021.1 hPa | 0 mm | - | 8 W/m² | - |
| 1777418572 | 7.22° C | 81% | 1020.9 hPa | 0 mm | - | 9 W/m² | - |
| 1777418269 | 7.22° C | 80% | 1021.1 hPa | 0 mm | - | 12 W/m² | - |
| 1777417964 | 7.22° C | 80% | 1021.1 hPa | 0 mm | - | 16 W/m² | - |
| 1777417660 | 7.22° C | 79% | 1021.2 hPa | 0 mm | - | 22 W/m² | - |
| 1777417356 | 7.22° C | 78% | 1021.1 hPa | 0 mm | - | 30 W/m² | - |
* Rain latest hour (hover to see other rain measurements)
** Current wind speed in m/s (hover to see current wind gust speed)